TimeMST,TemperatureF,Dew PointF,Humidity,Sea Level PressureIn,VisibilityMPH,Wind Direction,Wind SpeedMPH,Gust SpeedMPH,PrecipitationIn,Events,Conditions,WindDirDegrees,DateUTC
12:53 AM,45.0,34.0,65,30.12,10.0,ESE,6.9,-,N/A,,Clear,120,2012-11-07 07:53:00
1:53 AM,45.0,35.1,68,30.09,10.0,SE,6.9,-,N/A,,Clear,130,2012-11-07 08:53:00
2:53 AM,43.0,34.0,71,30.07,10.0,ESE,9.2,-,N/A,,Clear,110,2012-11-07 09:53:00
3:53 AM,43.0,33.1,68,30.06,10.0,SE,6.9,-,N/A,,Clear,130,2012-11-07 10:53:00
4:53 AM,43.0,33.1,68,30.07,10.0,SE,9.2,-,N/A,,Clear,130,2012-11-07 11:53:00
5:53 AM,45.0,30.9,58,30.07,10.0,SSE,4.6,-,N/A,,Clear,160,2012-11-07 12:53:00
6:53 AM,43.0,30.9,62,30.08,10.0,ESE,8.1,-,N/A,,Clear,120,2012-11-07 13:53:00
7:53 AM,45.0,33.1,63,30.09,10.0,ESE,6.9,-,N/A,,Clear,110,2012-11-07 14:53:00
8:53 AM,51.1,32.0,48,30.07,10.0,ESE,3.5,-,N/A,,Clear,120,2012-11-07 15:53:00
9:53 AM,55.9,32.0,40,30.06,10.0,SSE,4.6,-,N/A,,Clear,160,2012-11-07 16:53:00
10:53 AM,60.1,30.9,33,30.03,10.0,Calm,Calm,-,N/A,,Clear,0,2012-11-07 17:53:00
11:53 AM,63.0,33.1,33,29.99,10.0,ESE,3.5,-,N/A,,Clear,120,2012-11-07 18:53:00
12:53 PM,66.9,33.1,28,29.95,10.0,NW,3.5,-,N/A,,Clear,310,2012-11-07 19:53:00
1:53 PM,69.1,32.0,25,29.92,10.0,NW,3.5,-,N/A,,Clear,320,2012-11-07 20:53:00
2:53 PM,70.0,32.0,25,29.89,10.0,NW,4.6,-,N/A,,Clear,320,2012-11-07 21:53:00
3:53 PM,71.1,33.1,25,29.88,10.0,NNW,3.5,-,N/A,,Partly Cloudy,340,2012-11-07 22:53:00
4:53 PM,63.0,39.9,43,29.88,10.0,North,6.9,-,N/A,,Partly Cloudy,350,2012-11-07 23:53:00
5:53 PM,54.0,42.1,64,29.88,10.0,WNW,3.5,-,N/A,,Partly Cloudy,300,2012-11-08 00:53:00
6:53 PM,53.1,41.0,64,29.89,10.0,SE,4.6,-,N/A,,Partly Cloudy,140,2012-11-08 01:53:00
7:53 PM,54.0,33.1,45,29.87,10.0,SE,10.4,-,N/A,,Partly Cloudy,140,2012-11-08 02:53:00
8:53 PM,55.0,32.0,42,29.84,10.0,SE,10.4,-,N/A,,Scattered Clouds,140,2012-11-08 03:53:00
9:53 PM,55.0,30.0,38,29.82,10.0,SE,10.4,-,N/A,,Scattered Clouds,140,2012-11-08 04:53:00
10:53 PM,57.0,28.9,34,29.79,10.0,SE,11.5,-,N/A,,Scattered Clouds,130,2012-11-08 05:53:00
11:53 PM,53.1,28.9,40,29.78,10.0,ESE,9.2,-,N/A,,Scattered Clouds,120,2012-11-08 06:53:00